Regional Weather Roundup
Issued by NWS

Home | Current Version | Previous Version | Graphics & Text | Print | Product List | Glossary Off
Versions: 1 2 3 4 5 6 7 8 9 10 11 12 13 14 15 16 17 18 19 20 21 22 23 24 25 26 27 28 29 30 31 32 33 34 35 36 37 38 39 40 41 42 43 44 45 46 47 48 49 50

000
ASUS43 KLSX 192110
RWRMO

WEATHER SUMMARY FOR MISSOURI
NATIONAL WEATHER SERVICE SPRINGFIELD MO
400 PM CDT THU APR 19 2018

NOTE: "FAIR" INDICATES FEW OR NO CLOUDS BELOW 12,000 FEET WITH NO
       SIGNIFICANT WEATHER AND/OR OBSTRUCTIONS TO VISIBILITY.
       CURRENT SKY AND/OR WEATHER CONDITIONS ARE NOT AVAILABLE FOR
       CHILLICOTHE AND FARMINGTON.

MOZ001>031-035>038-043-044-053-054-192200-
...NORTHERN AND WESTERN MISSOURI...

CITY           SKY/WX    TMP DP  RH WIND       PRES   REMARKS
KANSAS CTY INT FAIR      59  30  33 NE9       30.41F
KANSAS C DTWN  FAIR      59  30  33 NE10G20   30.40F
LEE`S SUMMIT   FAIR      57  31  37 CALM      30.41F
ST JOSEPH      FAIR      59  31  34 E7        30.42F
CHILLICOTHE      N/A     57  31  37 VRB6      30.44F
KIRKSVILLE     FAIR      56  30  37 NE8       30.44F

$$
MOZ066>068-077>081-088>096-101>105-192200-
...SOUTHWEST MISSOURI...

CITY           SKY/WX    TMP DP  RH WIND       PRES   REMARKS
SPRINGFIELD    FAIR      56  33  42 N15G21    30.36F
JOPLIN         FAIR      55  33  43 E8G18     30.39F
BRANSON        MOSUNNY   55  28  35 NW12G17   30.36F

$$
MOZ032>034-039>042-045>050-055>058-069>072-192200-
...CENTRAL MISSOURI...

CITY           SKY/WX    TMP DP  RH WIND       PRES   REMARKS
COLUMBIA       FAIR      55  30  38 E6G18     30.41F
JEFFERSON CITY FAIR      55  29  36 VRB3      30.41F
ROLLA          FAIR      54  31  41 N9        30.39F
SEDALIA        FAIR      55  32  41 NE8       30.43
WHITEMAN AFB   MOSUNNY   55  31  40 CALM      30.38F
WARRENSBURG    FAIR      55  30  38 NE6       30.42F
OSAGE BEACH    FAIR      55  30  38 N7        30.41F

$$
MOZ051-052-059>065-192200-
...EAST CENTRAL MISSOURI...

CITY           SKY/WX    TMP DP  RH WIND       PRES   REMARKS
ST LOUIS INTL  FAIR      54  32  43 VRB3G21   30.41F
SPIRIT OF STL  FAIR      55  33  43 NE5       30.41F
ST CHARLES     FAIR      57  33  40 NE13G22   30.40F

$$
MOZ072>076-082>087-097>100-106>115-192200-
...SOUTH CENTRAL AND SOUTHEAST MISSOURI...

CITY           SKY/WX    TMP DP  RH WIND       PRES   REMARKS
CAPE GIRARDEAU PTSUNNY   52  32  46 NE12G23   30.38F
FARMINGTON       N/A     52  33  48 N12G17    30.40F
POPLAR BLUFF   FAIR      55  32  41 NE12G18   30.36F
WEST PLAINS    FAIR      54  29  38 N9G20     30.36F

$$




USA.gov is the U.S. government's official web portal to all federal, state and local government web resources and services.